[[{"header":{"parameterUnit":"m.s-1","parameterCategory":1,"la1":30.2991,"la2":30.254,"lo1":-89.0895,"lo2":-89.0444,"dy":0.0017,"dx":0.0017,"nx":28,"ny":28,"refTime":"2025-04-07T03:00:00:Z","depth":0,"parameterNumber":2,"parameterNumberName":"U-component_of_WINDS"},"data":[0,0,0,0,0,0,0,0,0,0,0,0,0,0,0,0,0,0,0,0,0,0,0,0,0,0,0,0,0,0,0,0,0,0,0,0,0,0,0,0,0,0,0,0,0,0,0,0,0,0,0,0,0,0,0,0,0,0,3.4449,3.4449,0,3.4478,3.4478,3.4479,3.4436,3.4434,3.4433,3.4432,3.4461,3.4463,3.4465,0,0,0,0,0,0,0,0,0,0,0,0,0,3.4357,3.4359,3.4449,3.4449,3.4449,3.4478,3.4478,3.4479,3.4436,3.4434,3.4433,3.4431,3.446,3.4463,3.4465,0,0,0,0,0,0,0,0,0,0,0,0,0,3.4392,3.4359,3.4449,3.4432,3.443,3.4478,3.4478,3.4479,3.4437,3.4434,3.4432,3.443,3.4459,3.4462,3.4466,3.4531,0,0,3.4476,3.4477,0,0,0,0,0,0,0,0,3.439,3.4396,3.4434,3.4433,3.4432,3.4451,3.4457,3.4496,3.4437,3.4434,3.4431,3.4429,3.4459,3.4462,3.4473,3.4532,3.4533,3.4476,3.4478,3.4479,3.448,0,0,0,0,0,0,0,3.4388,3.4394,3.446,3.4434,3.4433,3.4423,3.4425,3.4464,3.4459,3.4434,3.4431,3.4435,3.4458,3.447,3.4473,3.4534,3.4476,3.4479,3.4481,3.4482,3.465,3.4652,0,0,0,0,0,0,3.4388,3.4392,3.4459,3.4461,3.4405,3.4426,3.4429,3.4447,3.4458,3.4458,3.4437,3.4433,3.4465,3.4469,3.4474,3.4552,3.4479,3.4482,3.4484,3.4648,3.4651,3.4653,0,0,0,0,0,0,3.4386,3.4394,3.4458,3.4426,3.4433,3.443,3.4451,3.4449,3.446,3.4461,3.446,3.445,3.4464,3.4469,3.4517,3.4552,3.4484,3.4487,3.4645,3.4648,3.4652,3.4708,0,0,0,0,0,0,3.4383,3.4393,3.4418,3.4427,3.4435,3.4501,3.4453,3.4451,3.4466,3.4461,3.4472,3.4472,3.4462,3.4513,3.4521,3.4556,3.4489,3.4641,3.4646,3.4651,3.4703,3.4713,3.4722,0,0,0,0,0,3.438,3.4432,3.4419,3.4428,3.4466,3.4503,3.4508,3.4496,3.4469,3.4494,3.4494,3.4472,3.4548,3.4518,3.4527,3.4563,3.4639,3.4645,3.465,3.4699,3.4711,3.4722,0,0,0,0,0,0,3.4426,3.4433,3.4419,3.4475,3.4489,3.4496,3.4526,3.4509,3.4531,3.4525,3.4509,3.4512,3.4564,3.4568,3.4535,3.4628,3.4589,3.4597,3.4623,3.4635,3.4644,3.4641,3.4492,0,0,0,0,0,3.4443,3.4473,3.4477,3.4526,3.4534,3.4529,3.4545,3.4535,3.4548,3.4554,3.4558,3.4572,3.4599,3.4617,3.4642,3.4704,3.4706,3.4733,3.4743,3.4751,3.4757,3.4792,3.4804,3.4672,3.4672,3.4672,0,0,3.4478,3.4485,3.4504,3.4536,3.4545,3.4577,3.4534,3.4569,3.4592,3.4559,3.4605,3.4609,3.4623,3.4679,3.4704,3.4684,3.4795,3.4758,3.4764,3.4766,3.4799,3.4811,3.4822,3.4676,3.4675,3.4674,0,0,3.4557,3.4565,3.4608,3.4619,3.4634,3.4631,3.4642,3.4652,3.4653,3.4699,3.4675,3.4703,3.475,3.4762,3.4774,3.4861,3.4841,3.487,3.4919,3.4953,3.4963,3.4972,3.5004,3.5015,3.4876,3.4877,3.4877,0,3.4598,3.4644,3.4632,3.4669,3.4684,3.4656,3.47,3.4711,3.4734,3.4745,3.4723,3.4782,3.479,3.4849,3.4871,3.4881,3.4893,3.4868,3.4963,3.4972,3.498,3.501,3.5022,3.488,3.488,3.4879,3.4879,0,3.4694,3.4727,3.476,3.4783,3.4802,3.4842,3.4836,3.4857,3.4846,3.4845,3.4893,3.4902,3.4929,3.4943,3.4932,3.5001,3.4988,3.4965,3.4925,3.4996,3.5024,3.5035,3.4885,3.4884,3.4883,3.4882,0,0,3.4802,3.482,3.4832,3.4843,3.4859,3.4884,3.4924,3.4951,3.4969,3.4986,3.5019,3.5061,3.504,3.5054,3.5045,3.5075,3.5144,3.5048,3.5048,3.5065,3.5221,3.5239,3.5252,3.5132,3.5134,3.5135,3.522,0,3.4881,3.4949,3.494,3.5006,3.5037,3.5013,3.5047,3.5061,3.5063,3.5089,3.509,3.512,3.509,3.5099,3.5127,3.513,3.5175,3.5123,3.5162,3.5164,3.5159,3.5267,3.5285,3.5364,3.5231,3.5233,3.5234,0,3.4982,3.5004,3.5073,3.5087,3.5099,3.513,3.5155,3.5181,3.5197,3.5196,3.5213,3.5199,3.524,3.5201,3.5257,3.5222,3.5238,3.5242,3.5244,3.5247,3.5203,3.5272,3.5389,3.5401,3.5251,3.525,3.5249,0,3.5054,3.5101,3.5149,3.5159,3.5175,3.5198,3.5206,3.522,3.5238,3.526,3.5271,3.5298,3.5312,3.5334,3.5328,3.5299,3.5386,3.5345,3.5386,3.5386,3.5404,3.5403,3.5526,3.5415,3.5415,3.5415,3.5415,0,3.5144,3.5187,3.5182,3.5211,3.5259,3.5249,3.5297,3.5302,3.5315,3.5346,3.5327,3.5356,3.5346,3.5375,3.5371,3.5418,3.5425,3.5426,3.5424,3.5427,3.5427,3.5437,3.5431,3.5418,3.5417,3.5417,3.5416,0,3.5231,3.5229,3.528,3.5292,3.5296,3.5332,3.5342,3.537,3.5371,3.541,3.5418,3.5419,3.5452,3.5449,3.5486,3.5483,3.5542,3.5534,3.5537,3.5535,3.5576,3.5572,3.5709,3.5726,3.5605,3.5606,3.5607,0,3.5288,3.5321,3.5338,3.5357,3.5367,3.5398,3.5416,3.5408,3.5428,3.545,3.5476,3.5507,3.5532,3.5586,3.5591,3.5619,3.5612,3.5657,3.5616,3.5618,3.5613,3.5611,3.5614,3.5665,3.5667,3.5668,3.5669,0,3.539,3.5388,3.5415,3.5443,3.5465,3.5486,3.5505,3.5522,3.5517,3.554,3.5574,3.5593,3.5632,3.5664,3.5692,3.57,3.5684,3.5682,3.5693,3.5697,3.5697,3.5698,3.5559,3.5679,3.5678,3.5677,3.5676,3.5676,3.5464,3.5493,3.5509,3.5541,3.5555,3.5573,3.5601,3.5606,3.5634,3.5665,3.5659,3.5698,3.5715,3.575,3.5762,3.5793,3.5776,3.5792,3.5796,3.58,3.5805,3.5693,3.5798,3.5797,3.5797,3.5797,3.5797,0,3.5565,3.5575,3.5604,3.5632,3.5657,3.5641,3.5662,3.5684,3.5718,3.5735,3.5761,3.5801,3.5832,3.584,3.5871,3.5894,3.5887,3.5902,3.59,3.5903,3.5817,3.5805,3.5907,3.5907,3.5907,3.5907,3.5907,3.5907,3.562,3.5668,3.5669,3.5724,3.5734,3.5772,3.5785,3.5803,3.5817,3.5863,3.5889,3.5894,3.5908,3.594,3.5969,3.597,3.5983,3.6,3.5999,3.5919,3.5908,3.5898,3.5886,3.6003,3.6003,3.6082,3.6082,3.6083]},{"header":{"parameterUnit":"m.s-1","parameterCategory":1,"la1":30.2991,"la2":30.254,"lo1":-89.0895,"lo2":-89.0444,"dy":0.0017,"dx":0.0017,"nx":28,"ny":28,"refTime":"2025-04-07T03:00:00:Z","depth":0,"parameterNumber":3,"parameterNumberName":"V-component_of_WINDS"},"data":[0,0,0,0,0,0,0,0,0,0,0,0,0,0,0,0,0,0,0,0,0,0,0,0,0,0,0,0,0,0,0,0,0,0,0,0,0,0,0,0,0,0,0,0,0,0,0,0,0,0,0,0,0,0,0,0,0,0,-6.1632,-6.1633,0,-6.179,-6.1792,-6.1794,-6.1773,-6.1771,-6.1768,-6.1766,-6.1922,-6.1929,-6.1935,0,0,0,0,0,0,0,0,0,0,0,0,0,-6.1306,-6.1312,-6.1631,-6.1633,-6.1636,-6.179,-6.1792,-6.1794,-6.1774,-6.1771,-6.1768,-6.1765,-6.192,-6.1928,-6.1936,0,0,0,0,0,0,0,0,0,0,0,0,0,-6.1454,-6.1314,-6.1631,-6.1644,-6.1647,-6.179,-6.1792,-6.1795,-6.1774,-6.1771,-6.1767,-6.1763,-6.1918,-6.1927,-6.1937,-6.2075,0,0,-6.1967,-6.1971,0,0,0,0,0,0,0,0,-6.1446,-6.1466,-6.164,-6.1643,-6.1647,-6.1758,-6.1735,-6.1889,-6.1775,-6.1726,-6.1766,-6.1761,-6.1871,-6.1884,-6.1922,-6.2083,-6.2089,-6.1968,-6.1974,-6.1978,-6.1981,0,0,0,0,0,0,0,-6.1436,-6.1459,-6.1694,-6.1643,-6.1647,-6.164,-6.1657,-6.1764,-6.1818,-6.173,-6.1729,-6.1748,-6.1871,-6.1913,-6.1926,-6.2092,-6.1968,-6.1977,-6.1983,-6.1986,-6.2373,-6.2377,0,0,0,0,0,0,-6.1423,-6.1451,-6.1689,-6.1699,-6.1535,-6.1649,-6.1668,-6.1726,-6.1817,-6.1827,-6.1751,-6.1747,-6.1898,-6.1914,-6.1931,-6.2099,-6.1978,-6.1987,-6.1993,-6.2369,-6.2374,-6.2379,0,0,0,0,0,0,-6.1416,-6.1444,-6.1683,-6.1575,-6.1605,-6.1659,-6.1724,-6.1731,-6.1773,-6.1833,-6.1842,-6.1784,-6.1895,-6.1917,-6.204,-6.2104,-6.1992,-6.2001,-6.2364,-6.2371,-6.2377,-6.2436,0,0,0,0,0,0,-6.1407,-6.1442,-6.1496,-6.1576,-6.161,-6.1791,-6.1728,-6.1737,-6.179,-6.1786,-6.1866,-6.1875,-6.1894,-6.2025,-6.205,-6.2116,-6.2009,-6.2358,-6.2367,-6.2375,-6.2429,-6.2444,-6.2457,0,0,0,0,0,-6.1395,-6.1505,-6.1499,-6.1528,-6.168,-6.1795,-6.1814,-6.1835,-6.1796,-6.185,-6.1889,-6.1873,-6.2093,-6.2038,-6.2065,-6.2135,-6.2354,-6.2364,-6.2374,-6.2422,-6.2441,-6.2456,0,0,0,0,0,0,-6.1429,-6.1516,-6.151,-6.165,-6.1715,-6.1791,-6.186,-6.1854,-6.1931,-6.1923,-6.1944,-6.1962,-6.2086,-6.2123,-6.206,-6.2274,-6.2218,-6.2234,-6.2245,-6.2264,-6.2277,-6.2266,-6.2017,0,0,0,0,0,-6.1454,-6.1541,-6.1611,-6.1728,-6.1761,-6.1805,-6.1856,-6.1867,-6.1935,-6.1962,-6.2009,-6.2074,-6.2158,-6.2213,-6.2293,-6.2434,-6.245,-6.2495,-6.2509,-6.252,-6.2534,-6.261,-6.2631,-6.2411,-6.2411,-6.2411,0,0,-6.1504,-6.1562,-6.1616,-6.1736,-6.1788,-6.1877,-6.1829,-6.1924,-6.199,-6.1975,-6.2095,-6.2132,-6.2206,-6.2338,-6.2399,-6.2373,-6.2598,-6.2533,-6.2542,-6.2549,-6.2622,-6.2643,-6.2662,-6.2418,-6.2417,-6.2416,0,0,-6.1641,-6.1694,-6.1797,-6.1851,-6.1931,-6.1959,-6.1984,-6.2061,-6.2086,-6.2207,-6.2198,-6.2275,-6.2419,-6.2472,-6.2518,-6.2676,-6.2664,-6.2701,-6.2775,-6.2849,-6.2867,-6.2882,-6.2938,-6.2958,-6.2714,-6.2715,-6.2715,0,-6.1692,-6.1828,-6.185,-6.1948,-6.2001,-6.1994,-6.2098,-6.2148,-6.2249,-6.2285,-6.2255,-6.2436,-6.2485,-6.263,-6.2669,-6.2706,-6.2734,-6.2692,-6.2863,-6.2878,-6.2893,-6.2947,-6.2968,-6.2719,-6.2718,-6.2718,-6.2717,0,-6.1888,-6.1981,-6.2055,-6.2155,-6.2217,-6.2317,-6.2353,-6.2412,-6.2417,-6.2448,-6.2571,-6.263,-6.2722,-6.2757,-6.2763,-6.2903,-6.2884,-6.2858,-6.2803,-6.2918,-6.2968,-6.2989,-6.2724,-6.2723,-6.2722,-6.2721,0,0,-6.205,-6.2163,-6.2189,-6.2235,-6.2323,-6.2395,-6.2494,-6.2587,-6.2637,-6.2707,-6.279,-6.2913,-6.289,-6.2942,-6.2953,-6.3018,-6.3139,-6.2984,-6.2986,-6.3011,-6.3296,-6.3315,-6.3339,-6.3132,-6.3136,-6.3139,-6.329,0,-6.2196,-6.2374,-6.2397,-6.2554,-6.2641,-6.2635,-6.2722,-6.2784,-6.2816,-6.2893,-6.2927,-6.3014,-6.2977,-6.3008,-6.3073,-6.3111,-6.3197,-6.31,-6.3208,-6.3211,-6.319,-6.3366,-6.3386,-6.3526,-6.331,-6.3314,-6.3316,0,-6.2389,-6.2467,-6.2634,-6.271,-6.2747,-6.2825,-6.2912,-6.2986,-6.3056,-6.3074,-6.3133,-6.3136,-6.3237,-6.3178,-6.3317,-6.3251,-6.3296,-6.3321,-6.3327,-6.3338,-6.327,-6.338,-6.3571,-6.3592,-6.3347,-6.3345,-6.3343,0,-6.2491,-6.2637,-6.2756,-6.2795,-6.2887,-6.2942,-6.2983,-6.3049,-6.3103,-6.3178,-6.3214,-6.3299,-6.3345,-6.341,-6.3435,-6.339,-6.3573,-6.3515,-6.3589,-6.3589,-6.3628,-6.3625,-6.3828,-6.3658,-6.3657,-6.3657,-6.3656,0,-6.2651,-6.2753,-6.2803,-6.2876,-6.299,-6.3015,-6.3126,-6.3164,-6.3223,-6.3302,-6.3302,-6.3376,-6.3405,-6.3483,-6.3503,-6.3614,-6.3635,-6.3652,-6.3656,-6.3652,-6.365,-6.3682,-6.3673,-6.3662,-6.3661,-6.366,-6.3659,0,-6.2784,-6.2822,-6.2951,-6.3028,-6.305,-6.313,-6.3196,-6.3265,-6.3297,-6.3397,-6.3421,-6.347,-6.3562,-6.3594,-6.3704,-6.3718,-6.3847,-6.3843,-6.3825,-6.3825,-6.3898,-6.389,-6.4128,-6.416,-6.3968,-6.397,-6.3972,0,-6.2884,-6.2963,-6.3049,-6.3103,-6.3146,-6.3233,-6.3289,-6.3316,-6.3373,-6.346,-6.3519,-6.3611,-6.3685,-6.3832,-6.3876,-6.396,-6.3958,-6.4035,-6.397,-6.3964,-6.3959,-6.3954,-6.3961,-6.4047,-6.4049,-6.4051,-6.4052,0,-6.3057,-6.3072,-6.3153,-6.3242,-6.3309,-6.3379,-6.3447,-6.3491,-6.3528,-6.3593,-6.3688,-6.3746,-6.386,-6.3951,-6.4037,-6.4077,-6.4071,-6.4072,-6.4094,-6.4091,-6.4077,-6.4085,-6.3857,-6.4067,-6.4065,-6.4064,-6.4063,-6.4063,-6.3176,-6.3246,-6.3318,-6.3409,-6.3463,-6.3527,-6.3597,-6.3637,-6.3718,-6.3814,-6.3825,-6.3927,-6.3994,-6.411,-6.4154,-6.4233,-6.4211,-6.4243,-6.425,-6.4258,-6.4263,-6.4064,-6.4249,-6.4248,-6.4248,-6.4248,-6.4247,0,-6.3349,-6.3395,-6.3479,-6.3575,-6.3646,-6.3636,-6.3711,-6.3771,-6.3861,-6.3926,-6.4,-6.4109,-6.4197,-6.4248,-6.4336,-6.4389,-6.4388,-6.4411,-6.4407,-6.4416,-6.4278,-6.425,-6.441,-6.441,-6.441,-6.441,-6.441,-6.441,-6.3447,-6.3565,-6.3588,-6.3732,-6.3777,-6.3879,-6.3923,-6.3981,-6.4033,-6.4155,-6.4229,-6.4263,-6.4322,-6.4414,-6.4494,-6.4506,-6.4538,-6.4563,-6.4574,-6.4443,-6.4426,-6.441,-6.4385,-6.457,-6.457,-6.4706,-6.4707,-6.4708]}]]